Fresno, CA

11:43 PM PST on November 16, 2019 (GMT -0800)
Fresno Yosemite International

Weather History for KFAT - September, 2019

Change the Weather History Date:

Friday, September 6, 2019

  Actual Average Record
Temperature  
Mean Temperature 86 °F 78 °F  
Max Temperature 100 °F 94 °F 106 °F (1988)
Min Temperature 72 °F 64 °F 49 °F (1887)
Degree Days  
Heating Degree Days 0    
Month to date heating degree days 0  
Since 1 July heating degree days 0  
Cooling Degree Days 21    
Month to date cooling degree days 136  
Year to date cooling degree days 2077  
Growing Degree Days 36 (Base 50)    
Moisture  
Dew Point 50 °F    
Average Humidity 33    
Maximum Humidity 49    
Minimum Humidity 17    
Precipitation  
Precipitation 0.00 in 0.00 in 0.04 in (1969)
Month to date precipitation 0.00 0.01  
Year to date precipitation 9.52 7.87  
Snow  
Snow 0.00 in - - ()
Month to date snowfall 0.0  
Since 1 July snowfall 0.0  
Since 1 September snowfall 0.0  
Snow Depth 0.00 in    
Sea Level Pressure  
Sea Level Pressure 29.98 in    
Wind  
Wind Speed 8 mph (NW)    
Max Wind Speed 15 mph    
Max Gust Speed 20 mph    
Visibility 10 miles    
Events      
T = Trace of Precipitation, MM = Missing Value Source: NWS Daily Summary

Daily Weather History Graph

Daily Weather History Graph

Search for Another Location

Airport or City:

Astronomy

Sep. 06, 2019 Rise Set
Actual Time 6:33 AM PDT 7:20 PM PDT
Civil Twilight 6:07 AM PDT 7:46 PM PDT
Nautical Twilight 5:36 AM PDT 8:17 PM PDT
Astronomical Twilight 5:04 AM PDT 8:49 PM PDT
Moon 2:35 PM PDT (9/6) No Moon Set
Length of Visible Light 13h 38m
Length of Day
12h 46m
First Quarter, 57% of the Moon is Illuminated
Sep 6
First Quarter
Sep 13
Full
Sep 21
Last Quarter
Sep 28
New
Oct 5
First Quarter

Hourly Weather History & Observations

Time (PDT) Temp. Dew Point Humidity Pressure Visibility Wind Dir Wind Speed Gust Speed Precip Events Conditions
12:53 AM 80.1 °F 46.0 °F 30% 29.96 in 10.0 mi NW 11.5 mph - N/A   Mostly Cloudy
1:53 AM 77.0 °F 51.1 °F 40% 29.96 in 10.0 mi NW 9.2 mph - N/A   Mostly Cloudy
2:53 AM 75.0 °F 52.0 °F 44% 29.95 in 10.0 mi NNW 9.2 mph - N/A   Mostly Cloudy
3:53 AM 73.9 °F 53.1 °F 48% 29.96 in 10.0 mi WNW 10.4 mph - N/A   Mostly Cloudy
4:53 AM 73.0 °F 52.0 °F 48% 29.96 in 10.0 mi NW 8.1 mph - N/A   Mostly Cloudy
5:53 AM 72.0 °F 52.0 °F 49% 29.98 in 10.0 mi NW 6.9 mph - N/A   Mostly Cloudy
6:53 AM 73.0 °F 51.1 °F 46% 30.01 in 10.0 mi NW 8.1 mph - N/A   Overcast
7:53 AM 73.0 °F 50.0 °F 44% 30.03 in 10.0 mi WSW 4.6 mph - N/A   Mostly Cloudy
8:53 AM 75.9 °F 50.0 °F 40% 30.04 in 10.0 mi WNW 3.5 mph - N/A   Partly Cloudy
9:53 AM 81.0 °F 51.1 °F 35% 30.04 in 10.0 mi WNW 3.5 mph - N/A   Partly Cloudy
10:53 AM 84.0 °F 51.1 °F 32% 30.04 in 10.0 mi WNW 3.5 mph - N/A   Partly Cloudy
11:53 AM 88.0 °F 52.0 °F 29% 30.03 in 10.0 mi WNW 3.5 mph - N/A   Partly Cloudy
12:23 PM 90.0 °F 51.1 °F 26% 30.03 in 10.0 mi Calm Calm - N/A   Partly Cloudy
12:53 PM 91.9 °F 50.0 °F 24% 30.01 in 10.0 mi WNW 3.5 mph - N/A   Partly Cloudy
1:53 PM 93.9 °F 48.9 °F 21% 29.99 in 10.0 mi WNW 3.5 mph - N/A   Partly Cloudy
2:53 PM 97.0 °F 50.0 °F 20% 29.97 in 10.0 mi West 3.5 mph - N/A   Partly Cloudy
3:53 PM 98.1 °F 48.9 °F 19% 29.96 in 10.0 mi NW 8.1 mph - N/A   Partly Cloudy
4:53 PM 98.1 °F 48.9 °F 19% 29.94 in 10.0 mi NW 8.1 mph - N/A   Partly Cloudy
5:53 PM 98.1 °F 46.0 °F 17% 29.94 in 10.0 mi NNW 12.7 mph - N/A   Partly Cloudy
6:53 PM 96.1 °F 45.0 °F 17% 29.94 in 10.0 mi NW 13.8 mph - N/A   Partly Cloudy
7:53 PM 91.9 °F 46.0 °F 21% 29.95 in 10.0 mi NW 11.5 mph - N/A   Clear
8:53 PM 88.0 °F 50.0 °F 27% 29.96 in 10.0 mi NW 10.4 mph - N/A   Clear
9:53 PM 84.9 °F 50.0 °F 30% 29.96 in 10.0 mi NW 9.2 mph - N/A   Clear
10:53 PM 82.9 °F 50.0 °F 32% 29.96 in 10.0 mi WNW 10.4 mph - N/A   Clear
11:53 PM 80.1 °F 50.0 °F 35% 29.95 in 10.0 mi NNW 8.1 mph - N/A   Clear